Weather History for LESO - December, 2013

Change the Weather History Date:

Monday, December 16, 2013

  Actual Average (LFBZ) Record (LFBZ)
Temperature  
Mean Temperature 62 °F -  
Max Temperature 70 °F 53 °F - (-1)
Min Temperature 55 °F 41 °F - (-1)
Degree Days  
Heating Degree Days 2    
Growing Degree Days 12 (Base 50)    
Moisture  
Dew Point 27 °F    
Average Humidity 26    
Maximum Humidity 44    
Minimum Humidity 6    
Precipitation  
Precipitation 0.00 in - - ()
Sea Level Pressure  
Sea Level Pressure 30.26 in    
Wind  
Wind Speed 7 mph ()    
Max Wind Speed 17 mph    
Max Gust Speed -    
Visibility 19.0 miles    
Events      
Averages and records for this station are not official NWS values.
T = Trace of Precipitation, MM = Missing Value Source: Averaged Metar Reports

Daily Weather History Graph

Daily Weather History Graph

Search for Another Location

Airport or City:

Trip Planner

Search our weather history database for the weather conditions in past years. The results will help you decide how hot, cold, wet, or windy it might be!

Date:

Astronomy

Dec. 16, 2013 Rise Set
Actual Time 8:33 AM CET 5:32 PM CET
Civil Twilight 8:00 AM CET 6:04 PM CET
Nautical Twilight 7:24 AM CET 6:40 PM CET
Astronomical Twilight 6:49 AM CET 7:15 PM CET
Moon 5:12 PM CET (12/16) 7:27 AM CET (12/16)
Length of Visible Light 10h 04m
Length of Day
8h 58m
Waxing Gibbous, 99% of the Moon is Illuminated
Dec 16
Waxing Gibbous
Dec 17
Full
Dec 25
Last Quarter
Jan 1
New
Jan 8
First Quarter

Hourly Weather History & Observations

Time (CET) Temp. Dew Point Humidity Pressure Visibility Wind Dir Wind Speed Gust Speed Precip Events Conditions
5:30 AM 57.2 °F 33.8 °F 41% 30.30 in - SE 3.5 mph - N/A   Clear
6:00 AM 57.2 °F 30.2 °F 36% 30.30 in - SSE 5.8 mph - N/A   Clear
6:30 AM 55.4 °F 32.0 °F 41% 30.30 in - Variable 3.5 mph - N/A   Clear
7:00 AM 55.4 °F 33.8 °F 44% 30.30 in - SSE 3.5 mph - N/A   Clear
7:30 AM 60.8 °F 30.2 °F 31% 30.30 in - SE 17.3 mph - N/A   Clear
8:00 AM 57.2 °F 32.0 °F 38% 30.30 in - SSE 15.0 mph - N/A   Clear
8:30 AM 57.2 °F 32.0 °F 38% 30.30 in - SSE 13.8 mph - N/A   Clear
9:00 AM 59.0 °F 30.2 °F 34% 30.30 in - SE 9.2 mph - N/A   Clear
9:30 AM 59.0 °F 30.2 °F 34% 30.30 in - SE 5.8 mph - N/A   Clear
10:00 AM 62.6 °F 28.4 °F 27% 30.30 in - ESE 8.1 mph - N/A   Clear
10:30 AM 62.6 °F 32.0 °F 32% 30.30 in - SE 5.8 mph - N/A   Clear
11:00 AM 64.4 °F 32.0 °F 30% 30.33 in - ESE 3.5 mph - N/A   Clear
11:30 AM 66.2 °F 26.6 °F 23% 30.30 in - Variable 2.3 mph - N/A   Clear
12:00 PM 66.2 °F 30.2 °F 26% 30.30 in - SSE 5.8 mph - N/A   Clear
12:30 PM 68.0 °F 28.4 °F 23% 30.30 in - SSE 6.9 mph - N/A   Clear
1:00 PM 69.8 °F 28.4 °F 21% 30.27 in - Variable 2.3 mph - N/A   Clear
1:30 PM 68.0 °F 26.6 °F 21% 30.27 in - ESE 5.8 mph - N/A   Clear
2:00 PM 68.0 °F 26.6 °F 21% 30.27 in - SSE 16.1 mph - N/A   Clear
2:30 PM 68.0 °F 26.6 °F 21% 30.24 in - SSE 16.1 mph - N/A   Clear
3:00 PM 68.0 °F 28.4 °F 23% 30.24 in - SSE 11.5 mph - N/A   Clear
3:30 PM 66.2 °F 26.6 °F 23% 30.24 in - SSE 11.5 mph - N/A   Clear
4:00 PM 67 °F 21 °F 9% 30.24 in 19 mi South 11.5 mph - -   Clear
4:00 PM 64.4 °F 26.6 °F 24% 30.24 in - South 10.4 mph - N/A   Clear
4:30 PM 66.2 °F 23.0 °F 19% 30.24 in - SSW 9.2 mph - N/A   Clear
5:00 PM 66.2 °F 23.0 °F 19% 30.21 in - Variable 4.6 mph - N/A   Clear
5:30 PM 64.4 °F 21.2 °F 19% 30.21 in - Variable 2.3 mph - N/A   Clear
6:00 PM 64.4 °F 24.8 °F 22% 30.21 in - Variable 1.2 mph - N/A   Clear
6:30 PM 64.4 °F 21.2 °F 19% 30.21 in - SSE 10.4 mph - N/A   Clear
7:00 PM 65 °F 15 °F 6% 30.23 in 19 mi South 12.7 mph - -  
7:00 PM 64.4 °F 21.2 °F 19% 30.21 in - South 10.4 mph - N/A   Clear
7:30 PM 64.4 °F 21.2 °F 19% 30.21 in - SSE 9.2 mph - N/A   Clear
8:00 PM 60.8 °F 28.4 °F 29% 30.21 in - Variable 4.6 mph - N/A   Clear
8:30 PM 60.8 °F 26.6 °F 27% 30.21 in - Variable 6.9 mph - N/A   Clear
9:00 PM 60.8 °F 24.8 °F 25% 30.21 in - East 8.1 mph - N/A   Clear
9:30 PM 60.8 °F 24.8 °F 25% 30.21 in - ESE 11.5 mph - N/A   Clear